FW5238 Weather Reports


Display with metric or nautical units.
time (UTC)temp
F
wind
direction
speed
MPH
gust
MPH
rain 1hr
in
rain 24hr
in
rain mn
in
humidity
%
barometer
mb
20260505034530 51 113 0.0 5.0 0.00 0.00 0.00 79 1011.6
20260505034016 51 0 0.0 5.0 0.00 0.00 0.00 79 1011.5
20260505033516 51 0 0.0 5.0 0.00 0.00 0.00 78 1011.4
20260505033040 52 0 0.0 5.0 0.00 0.00 0.00 78 1011.6
20260505032511 52 124 0.0 7.0 0.00 0.00 0.00 78 1011.4
20260505032018 52 0 0.0 7.0 0.00 0.00 0.00 78 1011.5
20260505031533 52 144 1.0 6.0 0.00 0.00 0.00 77 1011.5
20260505031016 52 0 0.0 5.0 0.00 0.00 0.00 77 1011.6
20260505030517 52 152 0.0 5.0 0.00 0.00 0.00 77 1011.6
20260505030029 52 255 1.0 5.0 0.00 0.00 0.00 76 1011.5
20260505025513 52 145 1.0 5.0 0.00 0.00 0.00 76 1011.7
20260505025011 53 189 0.0 4.0 0.00 0.00 0.00 76 1011.8
20260505024530 53 0 1.0 6.0 0.00 0.00 0.00 76 1011.6
20260505024010 53 0 1.0 6.0 0.00 0.00 0.00 75 1011.7
20260505023511 53 150 2.0 6.0 0.00 0.00 0.00 75 1011.6
20260505023028 53 171 0.0 7.0 0.00 0.00 0.00 75 1011.7
20260505022513 53 0 0.0 7.0 0.00 0.00 0.00 74 1011.5
20260505022010 53 173 1.0 7.0 0.00 0.00 0.00 74 1011.6
20260505021532 53 149 1.0 5.0 0.00 0.00 0.00 73 1011.7
20260505021012 54 165 1.0 5.0 0.00 0.00 0.00 73 1011.8
20260505020512 54 131 1.0 5.0 0.00 0.00 0.00 73 1011.7
20260505020030 54 0 0.0 4.0 0.00 0.00 0.00 72 1011.7
20260505015510 54 134 1.0 6.0 0.00 0.00 0.00 72 1011.6
20260505015012 54 109 2.0 7.0 0.00 0.00 0.00 71 1011.6
20260505014530 54 0 1.0 7.0 0.00 0.00 0.00 71 1011.6
20260505014010 55 170 1.0 6.0 0.00 0.00 0.00 70 1011.7
20260505013510 55 0 0.0 7.0 0.00 0.00 0.00 70 1011.6
20260505013029 55 139 1.0 8.0 0.00 0.00 0.00 70 1011.6
20260505012510 55 0 1.0 8.0 0.00 0.00 0.00 69 1011.5
20260505012013 55 166 1.0 4.0 0.00 0.00 0.00 68 1011.4
20260505011530 56 177 0.0 9.0 0.00 0.00 0.00 67 1011.4
20260505011012 56 0 1.0 9.0 0.00 0.00 0.00 66 1011.2
20260505010510 56 215 1.0 10.0 0.00 0.00 0.00 65 1011.1
20260505010030 56 217 2.0 10.0 0.00 0.00 0.00 64 1011.1
20260505005513 56 160 1.0 7.0 0.00 0.00 0.00 64 1010.9
20260505005010 57 190 2.0 8.0 0.00 0.00 0.00 63 1010.7
20260505004533 57 178 3.0 9.0 0.00 0.00 0.00 62 1010.7
20260505004009 57 161 2.0 9.0 0.00 0.00 0.00 62 1010.6
20260505003513 57 140 2.0 7.0 0.00 0.00 0.00 61 1010.5
20260505003032 57 155 2.0 9.0 0.00 0.00 0.00 60 1010.3
20260505002514 57 0 1.0 9.0 0.00 0.00 0.00 59 1010.3
20260505002014 57 180 2.0 9.0 0.00 0.00 0.00 59 1010.2
20260505001532 57 175 3.0 8.0 0.00 0.00 0.00 59 1010.0
20260505001016 57 216 2.0 8.0 0.00 0.00 0.00 60 1009.9
20260505000514 58 91 1.0 8.0 0.00 0.00 0.00 60 1010.0
20260505000033 58 0 3.0 8.0 0.00 0.00 0.00 59 1009.8
20260504235514 58 192 2.0 11.0 0.00 0.00 0.00 59 1009.7
20260504235014 58 265 1.0 12.0 0.00 0.00 0.00 59 1009.6
20260504234530 58 132 4.0 12.0 0.00 0.00 0.00 59 1009.6
20260504234015 59 147 1.0 12.0 0.00 0.00 0.00 58 1009.4
20260504233515 59 198 3.0 12.0 0.00 0.00 0.00 57 1009.4
20260504233032 59 136 1.0 7.0 0.00 0.00 0.00 57 1009.4
20260504232514 59 170 3.0 10.0 0.00 0.00 0.00 56 1009.3
20260504232015 60 167 3.0 10.0 0.00 0.00 0.00 55 1009.3
20260504231532 60 157 2.0 15.0 0.00 0.00 0.00 55 1009.2
20260504231014 60 165 3.0 15.0 0.00 0.00 0.00 54 1009.1
20260504230515 61 209 2.0 12.0 0.00 0.00 0.00 53 1009.2
20260504230032 61 0 2.0 14.0 0.00 0.00 0.00 53 1008.9
20260504225519 62 192 4.0 14.0 0.00 0.00 0.00 51 1009.0
20260504225015 63 167 4.0 14.0 0.00 0.00 0.00 50 1009.0
20260504224530 63 246 4.0 11.0 0.00 0.00 0.00 49 1008.8
20260504224014 64 156 2.0 19.0 0.00 0.00 0.00 47 1008.8
20260504223515 64 176 4.0 19.0 0.00 0.00 0.00 46 1008.6
20260504223029 64 180 3.0 9.0 0.00 0.00 0.00 46 1008.7
20260504222515 65 154 1.0 10.0 0.00 0.00 0.00 46 1008.4
20260504222014 65 134 3.0 10.0 0.00 0.00 0.00 46 1008.5
20260504221530 65 191 3.0 12.0 0.00 0.00 0.00 46 1008.5
20260504221015 65 159 4.0 13.0 0.00 0.00 0.00 45 1008.4
20260504220515 65 179 4.0 18.0 0.00 0.00 0.00 45 1008.5
20260504220032 65 167 3.0 18.0 0.00 0.00 0.00 45 1008.5
20260504215514 66 224 3.0 11.0 0.00 0.00 0.00 45 1008.4
20260504215019 66 131 3.0 14.0 0.00 0.00 0.00 44 1008.4
20260504214535 66 170 4.0 14.0 0.00 0.00 0.00 44 1008.2
20260504214014 66 140 3.0 13.0 0.00 0.00 0.00 44 1008.2
20260504213516 66 194 4.0 13.0 0.00 0.00 0.00 45 1008.2
20260504213030 66 209 4.0 17.0 0.00 0.00 0.00 44 1008.1
20260504212515 67 155 5.0 17.0 0.00 0.00 0.00 44 1008.1
20260504212014 67 80 4.0 14.0 0.00 0.00 0.00 43 1008.2
20260504211532 67 0 3.0 16.0 0.00 0.00 0.00 43 1008.1
20260504211014 67 194 3.0 16.0 0.00 0.00 0.00 42 1007.9
20260504210514 67 178 2.0 14.0 0.00 0.00 0.00 43 1007.9
20260504210031 68 209 3.0 20.0 0.00 0.00 0.00 41 1007.8
20260504205514 68 167 3.0 20.0 0.00 0.00 0.00 40 1007.8
20260504205015 68 175 3.0 18.0 0.00 0.00 0.00 40 1007.8
20260504204532 68 208 4.0 9.0 0.00 0.00 0.00 41 1007.9
20260504204014 68 157 2.0 13.0 0.00 0.00 0.00 40 1008.1
20260504203515 68 159 4.0 13.0 0.00 0.00 0.00 40 1007.8
20260504203033 69 275 3.0 13.0 0.00 0.00 0.00 38 1007.9
20260504202515 68 360 3.0 18.0 0.00 0.00 0.00 39 1007.8
20260504202014 69 129 4.0 18.0 0.00 0.00 0.00 37 1007.8
20260504201529 69 185 2.0 11.0 0.00 0.00 0.00 37 1007.9
20260504201014 70 263 3.0 11.0 0.00 0.00 0.00 35 1008.0
20260504200515 70 21 3.0 8.0 0.00 0.00 0.00 34 1007.9
20260504200039 70 232 3.0 8.0 0.00 0.00 0.00 35 1008.0
20260504195518 70 256 2.0 10.0 0.00 0.00 0.00 35 1008.0
20260504195014 70 167 3.0 13.0 0.00 0.00 0.00 34 1008.0
20260504194533 70 61 2.0 13.0 0.00 0.00 0.00 34 1008.1
20260504194014 70 246 3.0 12.0 0.00 0.00 0.00 34 1007.9
20260504193514 70 206 2.0 11.0 0.00 0.00 0.00 33 1008.1
20260504193032 70 171 3.0 16.0 0.00 0.00 0.00 34 1008.0
20260504192514 70 319 4.0 16.0 0.00 0.00 0.00 33 1007.9
20260504192015 70 140 5.0 20.0 0.00 0.00 0.00 33 1008.0
20260504191546 70 157 5.0 20.0 0.00 0.00 0.00 33 1007.9
20260504191015 70 201 5.0 12.0 0.00 0.00 0.00 31 1008.1
20260504190515 70 255 3.0 11.0 0.00 0.00 0.00 32 1008.0
20260504190031 70 121 3.0 11.0 0.00 0.00 0.00 32 1008.1
20260504185514 70 243 4.0 11.0 0.00 0.00 0.00 31 1008.3
20260504185014 70 45 4.0 12.0 0.00 0.00 0.00 34 1008.3
20260504184538 70 268 3.0 12.0 0.00 0.00 0.00 32 1008.3
20260504184015 70 147 3.0 13.0 0.00 0.00 0.00 34 1008.2
20260504183515 70 123 3.0 13.0 0.00 0.00 0.00 34 1008.2
20260504183040 70 189 4.0 13.0 0.00 0.00 0.00 33 1008.3
20260504182514 70 230 2.0 17.0 0.00 0.00 0.00 33 1008.6
20260504182011 70 254 5.0 17.0 0.00 0.00 0.00 31 1008.6
20260504181532 70 98 5.0 17.0 0.00 0.00 0.00 34 1008.9
20260504181014 70 190 3.0 12.0 0.00 0.00 0.00 32 1008.6
20260504180516 70 208 5.0 16.0 0.00 0.00 0.00 33 1008.7
20260504180034 69 174 3.0 18.0 0.00 0.00 0.00 35 1008.8
20260504175514 69 307 6.0 18.0 0.00 0.00 0.00 31 1009.0
20260504175014 69 269 3.0 16.0 0.00 0.00 0.00 32 1008.7
20260504174531 69 173 3.0 13.0 0.00 0.00 0.00 34 1008.9
20260504174014 69 179 6.0 20.0 0.00 0.00 0.00 32 1008.7
20260504173513 69 219 4.0 20.0 0.00 0.00 0.00 33 1008.5
20260504173030 69 306 4.0 14.0 0.00 0.00 0.00 31 1008.7
20260504172515 69 181 4.0 16.0 0.00 0.00 0.00 33 1008.6
20260504172014 69 313 5.0 16.0 0.00 0.00 0.00 32 1008.7
20260504171531 69 155 4.0 16.0 0.00 0.00 0.00 33 1008.7
20260504171018 69 194 5.0 16.0 0.00 0.00 0.00 33 1008.7
20260504170519 70 192 3.0 12.0 0.00 0.00 0.00 36 1008.7
20260504151014 66 5 3.0 13.0 0.00 0.00 0.00 37 1010.0
20260504150516 66 0 3.0 13.0 0.00 0.00 0.00 39 1010.2
20260504141017 64 219 2.0 12.0 0.00 0.01 0.00 41 1010.8
20260504140514 64 216 3.0 13.0 0.00 0.01 0.00 39 1010.9
20260504130514 60 190 2.0 10.0 0.00 0.01 0.00 45 1011.3
20260504110514 41 0 0.0 0.0 0.00 0.01 0.00 79 1011.6
20260504100514 39 0 0.0 0.0 0.00 0.01 0.00 78 1011.4
20260504081534 41 0 0.0 0.0 0.00 0.01 0.00 78 1011.0
20260504081012 41 0 0.0 0.0 0.00 0.01 0.00 78 1010.9
20260504080513 41 0 0.0 2.0 0.00 0.01 0.00 77 1011.0
20260504050511 36 0 0.0 0.0 0.00 0.01 0.00 81 1010.9
20260504045511 36 0 0.0 1.0 0.00 0.01 0.00 81 1011.0
20260504045017 36 0 0.0 1.0 0.00 0.01 0.00 82 1011.1
20260504044537 36 0 0.0 1.0 0.00 0.01 0.00 81 1011.0
20260504044013 36 0 0.0 1.0 0.00 0.01 0.00 82 1011.0
20260504043514 35 0 0.0 0.0 0.00 0.01 0.00 81 1010.9
20260504043030 35 0 0.0 0.0 0.00 0.01 0.00 82 1011.0
20260504042512 35 0 0.0 1.0 0.00 0.01 0.00 81 1011.0
20260504042014 35 0 0.0 1.0 0.00 0.01 0.00 81 1011.0
20260504041532 35 0 0.0 2.0 0.00 0.01 0.00 81 1011.0
20260504041011 35 0 0.0 2.0 0.00 0.01 0.00 81 1010.8
20260504040514 35 0 0.0 2.0 0.00 0.01 0.00 80 1010.8
20260504040030 35 0 0.0 1.0 0.00 0.01 0.00 81 1010.9
20260504035517 35 0 0.0 0.0 0.00 0.01 0.01 80 1010.8
20260504035013 35 0 0.0 0.0 0.00 0.01 0.01 80 1010.8